Redmond, OR

10:27 PM PDT on April 24, 2017 (GMT -0700)
Roberts Field Airport

Weather History for KRDM - July, 2013

Change the Weather History Date:

Wednesday, July 31, 2013

  Actual Average Record
Temperature  
Mean Temperature 71 °F 68 °F  
Max Temperature 85 °F 88 °F 100 °F (1971)
Min Temperature 56 °F 47 °F 34 °F (1963)
Degree Days  
Heating Degree Days 0 1  
Month to date heating degree days 20 68  
Since 1 June heating degree days 205 286  
Since 1 July heating degree days 20 69  
Cooling Degree Days 6 4  
Month to date cooling degree days 167 97  
Year to date cooling degree days 215 126  
Since 1 June cooling degree days 206 121  
Growing Degree Days 19 (Base 50)    
Moisture  
Dew Point 42 °F    
Average Humidity 40    
Maximum Humidity 64    
Minimum Humidity 15    
Precipitation  
Precipitation T in 0.02 in 0.41 in (1971)
Month to date precipitation T 0.55  
Year to date precipitation 1.92 5.23  
Sea Level Pressure  
Sea Level Pressure 30.02 in    
Wind  
Wind Speed 6 mph (NNW)    
Max Wind Speed 25 mph    
Max Gust Speed 33 mph    
Visibility 10 miles    
Events Rain    
T = Trace of Precipitation, MM = Missing Value Source: NWS Daily Summary

Daily Weather History Graph

Daily Weather History Graph

Search for Another Location

Airport or City:

Trip Planner

Search our weather history database for the weather conditions in past years. The results will help you decide how hot, cold, wet, or windy it might be!

Date:

Astronomy

Jul. 31, 2013 Rise Set
Actual Time 5:51 AM PDT 8:29 PM PDT
Civil Twilight 5:18 AM PDT 9:02 PM PDT
Nautical Twilight 4:36 AM PDT 9:44 PM PDT
Astronomical Twilight 3:48 AM PDT 10:32 PM PDT
Moon 12:50 AM PDT (7/31) 3:51 PM PDT (7/31)
Length of Visible Light 15h 44m
Length of Day
14h 38m
Waning Crescent, 31% of the Moon is Illuminated
Jul 31
Waning Crescent
Aug 6
New
Aug 14
First Quarter
Aug 20
Full
Aug 28
Last Quarter

Hourly Weather History & Observations

Time (PDT) Temp. Dew Point Humidity Pressure Visibility Wind Dir Wind Speed Gust Speed Precip Events Conditions
12:56 AM 66.0 °F 48.0 °F 52% 30.06 in 10.0 mi NW 5.8 mph - N/A   Clear
1:56 AM 64.9 °F 46.9 °F 52% 30.05 in 10.0 mi WNW 4.6 mph - N/A   Clear
2:56 AM 63.0 °F 45.0 °F 52% 30.04 in 10.0 mi West 6.9 mph - N/A   Clear
3:56 AM 62.1 °F 44.1 °F 52% 30.04 in 10.0 mi West 3.5 mph - N/A   Clear
4:56 AM 57.0 °F 42.1 °F 57% 30.05 in 10.0 mi SSE 4.6 mph - N/A   Clear
5:56 AM 57.0 °F 41.0 °F 55% 30.05 in 10.0 mi Calm Calm - N/A   Clear
6:56 AM 57.0 °F 42.1 °F 57% 30.06 in 10.0 mi SSE 5.8 mph - N/A   Clear
7:56 AM 63.0 °F 42.1 °F 46% 30.04 in 10.0 mi Calm Calm - N/A   Clear
8:56 AM 69.1 °F 42.1 °F 38% 30.04 in 10.0 mi Calm Calm - N/A   Clear
9:56 AM 73.9 °F 41.0 °F 30% 30.02 in 10.0 mi NNW 4.6 mph - N/A   Clear
10:56 AM 75.0 °F 39.9 °F 28% 30.02 in 10.0 mi Variable 4.6 mph - N/A   Clear
11:56 AM 78.1 °F 37.0 °F 23% 30.00 in 10.0 mi North 8.1 mph - N/A   Partly Cloudy
12:56 PM 81.0 °F 34.0 °F 18% 29.98 in 10.0 mi Variable 5.8 mph - N/A   Clear
1:56 PM 79.0 °F 37.0 °F 22% 29.99 in 10.0 mi North 10.4 mph - N/A   Mostly Cloudy
2:56 PM 81.0 °F 30.9 °F 16% 29.95 in 10.0 mi North 9.2 mph - N/A   Partly Cloudy
3:56 PM 81.0 °F 28.9 °F 15% 29.93 in 10.0 mi North 12.7 mph 20.7 mph N/A   Clear
4:56 PM 71.1 °F 42.1 °F 35% 30.06 in 8.0 mi South 11.5 mph 33.4 mph 0.00 in Rain Light Rain
5:10 PM 71.6 °F 41.0 °F 33% 30.12 in 10.0 mi NW 4.6 mph 31.1 mph 0.00 in   Overcast
5:56 PM 71.1 °F 43.0 °F 36% 30.04 in 10.0 mi North 12.7 mph - 0.00 in   Scattered Clouds
6:56 PM 71.1 °F 41.0 °F 34% 30.05 in 10.0 mi Calm Calm - N/A   Mostly Cloudy
7:56 PM 69.1 °F 44.1 °F 40% 30.02 in 10.0 mi East 4.6 mph - 0.00 in Rain Light Rain
8:56 PM 66.0 °F 48.0 °F 52% 30.01 in 10.0 mi SW 3.5 mph - 0.00 in   Clear
9:56 PM 63.0 °F 46.9 °F 56% 29.99 in 10.0 mi NE 5.8 mph - N/A   Scattered Clouds
10:56 PM 60.1 °F 48.0 °F 64% 29.97 in 10.0 mi East 6.9 mph - 0.00 in   Mostly Cloudy
11:56 PM 61.0 °F 46.9 °F 60% 29.98 in 10.0 mi Calm Calm - N/A   Mostly Cloudy